QPF
0.01 0.02 0.02 0.01 0.01 0.01 0.01 0.02 0.02 0.02 0.01 0.02 0.01 0.01 0.01 0.01 0.01 0.01 0.02 0.01 0.02 0.04 0.04 0.03 0.01 0.01 0.01 0.01 0.01 0.01 0.01 0.01 0.01 0.01 0.01 0.02 0.02 0.01 0.01 0.02 0.02 0.02 0.02 0.03
0.01 0.02 0.01 0.01 0.00 0.00 0.01 0.01 0.01 0.01 0.00 0.01 0.01 0.01 0.01 0.01 0.01 0.01 0.02 0.02 0.02 0.02 0.02 0.01 0.01 0.01 0.01 0.01 0.01 0.00 0.00 0.00 0.01 0.01 0.01 0.01 0.02 0.02 0.01 0.01 0.02 0.01 0.01 0.02
0.01 0.01 0.01 0.01 0.01 0.01 0.01 0.01 0.01 0.01 0.00 0.00 0.00 0.01 0.00 0.01 0.01 0.01 0.01 0.01 0.01 0.01 0.01 0.01 0.00 0.00 0.01 0.00 0.00 0.00 0.00 0.00 0.01 0.00 0.00 0.01 0.02 0.02 0.01 0.01 0.01 0.01 0.01 0.01
0.01 0.01 0.01 0.01 0.01 0.01 0.01 0.01 0.01 0.01 0.01 0.01 0.01 0.01 0.00 0.00 0.00 0.01 0.01 0.01 0.01 0.01 0.01 0.01 0.00 0.00 0.01 0.01 0.00 0.01 0.00 0.00 0.00 0.00 0.00 0.01 0.02 0.02 0.01 0.01 0.01 0.01 0.01 0.01
0.01 0.01 0.01 0.01 0.01 0.01 0.01 0.01 0.01 0.01 0.02 0.02 0.01 0.01 0.01 0.00 0.00 0.00 0.00 0.01 0.01 0.01 0.01 0.00 0.00 0.00 0.00 0.01 0.01 0.01 0.01 0.01 0.01 0.01 0.01 0.02 0.02 0.01 0.01 0.00 0.01 0.01 0.01 0.01
0.00 0.01 0.01 0.01 0.01 0.01 0.01 0.01 0.01 0.02 0.02 0.02 0.01 0.01 0.01 0.00 0.00 0.00 0.00 0.01 0.01 0.01 0.01 0.00 0.00 0.01 0.00 0.01 0.01 0.01 0.02 0.01 0.01 0.01 0.01 0.02 0.02 0.01 0.01 0.00 0.00 0.01 0.01 0.01
0.00 0.01 0.01 0.00 0.00 0.00 0.00 0.01 0.02 0.02 0.02 0.01 0.00 0.00 0.00 0.00 0.00 0.00 0.00 0.01 0.01 0.01 0.00 0.00 0.00 0.01 0.01 0.00 0.01 0.01 0.02 0.02 0.02 0.02 0.02 0.02 0.02 0.01 0.01 0.01 0.00 0.01 0.01 0.01
0.00 0.00 0.00 0.00 0.00 0.00 0.00 0.00 0.01 0.01 0.01 0.01 0.00 0.00 0.00 0.00 0.00 0.00 0.00 0.00 0.00 0.01 0.01 0.00 0.00 0.00 0.00 0.01 0.01 0.01 0.02 0.02 0.02 0.02 0.03 0.02 0.02 0.01 0.01 0.01 0.00 0.00 0.00 0.01
0.00 0.00 0.00 0.00 0.00 0.00 0.00 0.01 0.00 0.00 0.01 0.01 0.01 0.00 0.00 0.00 0.00 0.00 0.00 0.00 0.00 0.00 0.00 0.00 0.00 0.00 0.00 0.01 0.01 0.01 0.01 0.01 0.02 0.02 0.03 0.02 0.02 0.02 0.01 0.01 0.01 0.00 0.00 0.01
0.00 0.00 0.00 0.00 0.00 0.00 0.00 0.01 0.01 0.01 0.01 0.01 0.01 0.00 0.00 0.00 0.00 0.00 0.00 0.00 0.00 0.00 0.00 0.00 0.00 0.00 0.00 0.01 0.01 0.00 0.01 0.01 0.01 0.02 0.02 0.02 0.02 0.02 0.02 0.02 0.01 0.00 0.00 0.00
0.00 0.00 0.00 0.00 0.00 0.00 0.00 0.01 0.01 0.01 0.01 0.01 0.01 0.00 0.00 0.00 0.00 0.00 0.00 0.00 0.00 0.00 0.00 0.00 0.00 0.00 0.00 0.01 0.01 0.00 0.00 0.00 0.01 0.01 0.01 0.01 0.02 0.01 0.01 0.01 0.01 0.00 0.00 0.00
0.00 0.00 0.00 0.00 0.00 0.00 0.00 0.01 0.01 0.01 0.01 0.01 0.01 0.00 0.00 0.00 0.00 0.00 0.01 0.01 0.01 0.01 0.01 0.01 0.01 0.01 0.01 0.01 0.01 0.01 0.00 0.00 0.01 0.01 0.01 0.01 0.02 0.02 0.01 0.01 0.01 0.00 0.00 0.00
0.01 0.01 0.01 0.00 0.00 0.00 0.00 0.00 0.00 0.00 0.01 0.01 0.01 0.00 0.00 0.00 0.00 0.00 0.00 0.00 0.00 0.00 0.01 0.01 0.01 0.02 0.02 0.01 0.01 0.01 0.01 0.01 0.01 0.01 0.01 0.01 0.01 0.01 0.01 0.01 0.01 0.00 0.00 0.00
0.00 0.01 0.01 0.01 0.00 0.00 0.00 0.00 0.00 0.01 0.01 0.00 0.00 0.00 0.00 0.00 0.00 0.00 0.00 0.01 0.01 0.00 0.00 0.00 0.01 0.01 0.01 0.01 0.01 0.01 0.01 0.01 0.01 0.01 0.01 0.01 0.01 0.01 0.01 0.01 0.01 0.01 0.00 0.00
0.00 0.00 0.00 0.01 0.00 0.00 0.00 0.00 0.00 0.00 0.00 0.00 0.00 0.00 0.00 0.00 0.00 0.00 0.00 0.00 0.00 0.00 0.00 0.00 0.00 0.00 0.00 0.01 0.01 0.01 0.01 0.01 0.01 0.01 0.02 0.02 0.02 0.01 0.01 0.01 0.01 0.01 0.01 0.01
0.00 0.00 0.00 0.00 0.00 0.00 0.00 0.00 0.00 0.00 0.00 0.00 0.00 0.00 0.00 0.00 0.00 0.00 0.00 0.00 0.00 0.00 0.00 0.00 0.00 0.00 0.00 0.00 0.01 0.01 0.01 0.01 0.01 0.01 0.02 0.03 0.02 0.02 0.01 0.01 0.02 0.02 0.02 0.01
0.00 0.00 0.00 0.00 0.00 0.00 0.00 0.00 0.00 0.00 0.00 0.00 0.00 0.00 0.00 0.00 0.00 0.00 0.00 0.00 0.00 0.00 0.00 0.00 0.00 0.00 0.00 0.00 0.00 0.00 0.01 0.01 0.01 0.01 0.01 0.01 0.01 0.01 0.02 0.02 0.01 0.01 0.01 0.01
0.01 0.00 0.00 0.00 0.00 0.01 0.01 0.00 0.00 0.00 0.00 0.00 0.00 0.00 0.00 0.00 0.00 0.00 0.00 0.00 0.00 0.00 0.00 0.00 0.00 0.00 0.00 0.00 0.00 0.00 0.01 0.01 0.01 0.00 0.00 0.01 0.01 0.01 0.02 0.02 0.02 0.02 0.02 0.02
0.02 0.01 0.01 0.00 0.01 0.01 0.01 0.01 0.00 0.01 0.00 0.00 0.00 0.00 0.00 0.00 0.00 0.00 0.00 0.00 0.00 0.00 0.00 0.00 0.00 0.00 0.00 0.00 0.00 0.01 0.01 0.01 0.01 0.01 0.00 0.00 0.00 0.00 0.01 0.01 0.01 0.02 0.02 0.02
0.01 0.01 0.01 0.01 0.01 0.02 0.01 0.01 0.00 0.01 0.01 0.00 0.00 0.00 0.00 0.00 0.00 0.00 0.00 0.00 0.00 0.00 0.00 0.00 0.00 0.00 0.01 0.00 0.00 0.00 0.01 0.01 0.01 0.01 0.01 0.00 0.01 0.01 0.01 0.01 0.01 0.01 0.01 0.01
0.01 0.01 0.01 0.01 0.01 0.01 0.01 0.01 0.01 0.01 0.02 0.01 0.00 0.00 0.00 0.00 0.00 0.00 0.00 0.00 0.00 0.00 0.00 0.01 0.01 0.00 0.00 0.00 0.00 0.00 0.01 0.01 0.01 0.01 0.01 0.01 0.01 0.01 0.02 0.01 0.01 0.01 0.01 0.01
0.01 0.01 0.01 0.01 0.01 0.01 0.01 0.01 0.01 0.01 0.01 0.01 0.01 0.00 0.00 0.00 0.00 0.00 0.00 0.00 0.00 0.00 0.00 0.01 0.01 0.00 0.00 0.00 0.00 0.00 0.00 0.00 0.00 0.00 0.01 0.01 0.01 0.01 0.01 0.01 0.01 0.01 0.02 0.02
0.01 0.01 0.01 0.01 0.01 0.01 0.01 0.02 0.01 0.01 0.01 0.00 0.00 0.00 0.00 0.00 0.00 0.00 0.00 0.00 0.00 0.00 0.00 0.00 0.00 0.00 0.00 0.00 0.00 0.00 0.00 0.00 0.00 0.00 0.00 0.01 0.01 0.01 0.01 0.01 0.01 0.01 0.01 0.02
0.01 0.01 0.01 0.02 0.02 0.01 0.01 0.01 0.01 0.00 0.00 0.00 0.00 0.00 0.00 0.00 0.00 0.00 0.00 0.00 0.00 0.00 0.00 0.00 0.00 0.00 0.00 0.00 0.00 0.01 0.01 0.01 0.01 0.01 0.01 0.01 0.01 0.01 0.00 0.00 0.00 0.00 0.01 0.02
0.01 0.01 0.01 0.01 0.01 0.01 0.01 0.01 0.01 0.01 0.01 0.01 0.01 0.00 0.00 0.00 0.00 0.00 0.00 0.00 0.00 0.00 0.00 0.01 0.01 0.01 0.01 0.00 0.00 0.00 0.00 0.00 0.01 0.01 0.01 0.00 0.00 0.00 0.00 0.00 0.00 0.00 0.00 0.01
0.01 0.01 0.01 0.01 0.00 0.01 0.00 0.00 0.00 0.01 0.01 0.01 0.01 0.01 0.01 0.01 0.01 0.01 0.01 0.01 0.02 0.02 0.01 0.02 0.02 0.02 0.01 0.01 0.01 0.01 0.00 0.00 0.00 0.01 0.00 0.00 0.00 0.00 0.00 0.00 0.00 0.00 0.00 0.01
MSLP
1017.69 1018.41 1019.10 1019.72 1020.22 1020.61 1020.89 1021.06 1021.16 1021.21 1021.22 1021.19 1021.13 1021.02 1020.89 1020.71 1020.52 1020.32 1020.15 1020.03 1019.97 1019.97 1020.03 1020.12 1020.23 1020.33 1020.41 1020.46 1020.49 1020.53 1020.59 1020.71 1020.87 1021.09 1021.32 1021.54 1021.72 1021.80 1021.79 1021.68 1021.49 1021.27 1021.05 1020.89
1018.59 1019.22 1019.79 1020.26 1020.62 1020.88 1021.05 1021.15 1021.19 1021.21 1021.19 1021.14 1021.05 1020.90 1020.72 1020.50 1020.27 1020.05 1019.89 1019.79 1019.78 1019.85 1019.98 1020.14 1020.30 1020.44 1020.54 1020.60 1020.64 1020.69 1020.78 1020.92 1021.13 1021.40 1021.68 1021.95 1022.16 1022.27 1022.26 1022.14 1021.93 1021.67 1021.43 1021.24
1019.33 1019.87 1020.32 1020.66 1020.89 1021.04 1021.12 1021.16 1021.16 1021.14 1021.09 1020.99 1020.84 1020.63 1020.37 1020.08 1019.80 1019.57 1019.42 1019.37 1019.43 1019.59 1019.81 1020.06 1020.30 1020.49 1020.63 1020.71 1020.77 1020.83 1020.93 1021.09 1021.33 1021.63 1021.96 1022.26 1022.50 1022.63 1022.63 1022.51 1022.30 1022.04 1021.79 1021.59
1019.86 1020.30 1020.64 1020.87 1021.01 1021.08 1021.11 1021.10 1021.08 1021.02 1020.92 1020.76 1020.53 1020.22 1019.86 1019.50 1019.16 1018.90 1018.76 1018.77 1018.92 1019.18 1019.52 1019.88 1020.21 1020.47 1020.66 1020.77 1020.84 1020.91 1021.02 1021.20 1021.46 1021.78 1022.14 1022.47 1022.73 1022.89 1022.91 1022.82 1022.62 1022.39 1022.15 1021.98
1020.14 1020.49 1020.74 1020.89 1020.97 1021.00 1021.01 1020.99 1020.96 1020.88 1020.73 1020.50 1020.17 1019.75 1019.28 1018.81 1018.41 1018.12 1017.99 1018.05 1018.29 1018.66 1019.12 1019.59 1020.02 1020.37 1020.61 1020.76 1020.86 1020.94 1021.06 1021.25 1021.52 1021.86 1022.23 1022.59 1022.88 1023.07 1023.13 1023.07 1022.92 1022.73 1022.53 1022.39
1020.17 1020.44 1020.61 1020.72 1020.77 1020.80 1020.83 1020.83 1020.81 1020.72 1020.53 1020.23 1019.80 1019.27 1018.69 1018.12 1017.64 1017.32 1017.20 1017.31 1017.62 1018.09 1018.66 1019.24 1019.76 1020.19 1020.50 1020.69 1020.82 1020.92 1021.05 1021.26 1021.54 1021.89 1022.28 1022.66 1022.98 1023.21 1023.31 1023.30 1023.21 1023.06 1022.93 1022.83
1019.98 1020.18 1020.31 1020.39 1020.45 1020.52 1020.58 1020.64 1020.64 1020.56 1020.35 1019.98 1019.47 1018.85 1018.16 1017.50 1016.96 1016.60 1016.48 1016.62 1016.99 1017.54 1018.20 1018.86 1019.47 1019.96 1020.33 1020.57 1020.73 1020.86 1021.01 1021.23 1021.53 1021.90 1022.32 1022.72 1023.07 1023.34 1023.48 1023.53 1023.48 1023.40 1023.32 1023.27
1019.63 1019.77 1019.87 1019.96 1020.05 1020.17 1020.29 1020.41 1020.45 1020.39 1020.17 1019.77 1019.20 1018.50 1017.74 1017.01 1016.41 1016.03 1015.90 1016.06 1016.47 1017.07 1017.79 1018.51 1019.18 1019.72 1020.13 1020.42 1020.61 1020.78 1020.97 1021.22 1021.54 1021.94 1022.37 1022.80 1023.18 1023.47 1023.66 1023.75 1023.75 1023.72 1023.68 1023.68
1019.19 1019.29 1019.38 1019.48 1019.61 1019.79 1019.98 1020.15 1020.24 1020.20 1019.98 1019.57 1018.96 1018.22 1017.41 1016.65 1016.02 1015.63 1015.50 1015.67 1016.10 1016.73 1017.46 1018.22 1018.91 1019.49 1019.93 1020.26 1020.50 1020.70 1020.93 1021.22 1021.58 1022.00 1022.46 1022.91 1023.31 1023.63 1023.84 1023.96 1024.00 1024.00 1023.99 1024.01
1018.73 1018.80 1018.88 1019.01 1019.18 1019.41 1019.65 1019.87 1020.00 1019.98 1019.76 1019.34 1018.72 1017.97 1017.15 1016.39 1015.77 1015.37 1015.26 1015.43 1015.86 1016.49 1017.22 1017.98 1018.68 1019.27 1019.74 1020.09 1020.38 1020.63 1020.91 1021.24 1021.64 1022.09 1022.57 1023.04 1023.45 1023.78 1024.00 1024.14 1024.19 1024.21 1024.22 1024.26
1018.27 1018.34 1018.44 1018.59 1018.80 1019.05 1019.33 1019.56 1019.69 1019.67 1019.46 1019.03 1018.42 1017.68 1016.89 1016.16 1015.57 1015.20 1015.11 1015.29 1015.71 1016.32 1017.03 1017.76 1018.45 1019.04 1019.52 1019.91 1020.23 1020.54 1020.87 1021.25 1021.69 1022.17 1022.66 1023.14 1023.56 1023.89 1024.12 1024.26 1024.33 1024.35 1024.38 1024.42
1017.86 1017.94 1018.06 1018.23 1018.46 1018.72 1018.99 1019.20 1019.31 1019.26 1019.03 1018.60 1018.00 1017.29 1016.55 1015.87 1015.34 1015.02 1014.95 1015.15 1015.56 1016.14 1016.82 1017.52 1018.17 1018.75 1019.24 1019.66 1020.02 1020.38 1020.76 1021.19 1021.67 1022.18 1022.69 1023.17 1023.58 1023.91 1024.15 1024.30 1024.38 1024.42 1024.46 1024.52
1017.51 1017.61 1017.75 1017.94 1018.17 1018.41 1018.63 1018.79 1018.83 1018.73 1018.45 1018.00 1017.41 1016.74 1016.06 1015.45 1014.99 1014.74 1014.72 1014.92 1015.33 1015.89 1016.52 1017.18 1017.80 1018.37 1018.86 1019.30 1019.70 1020.11 1020.54 1021.02 1021.53 1022.06 1022.58 1023.07 1023.49 1023.82 1024.07 1024.23 1024.34 1024.42 1024.49 1024.58
1017.19 1017.34 1017.50 1017.70 1017.90 1018.09 1018.23 1018.30 1018.25 1018.05 1017.71 1017.23 1016.65 1016.01 1015.39 1014.86 1014.49 1014.30 1014.33 1014.56 1014.96 1015.49 1016.09 1016.70 1017.29 1017.84 1018.34 1018.79 1019.24 1019.69 1020.17 1020.68 1021.22 1021.77 1022.31 1022.80 1023.23 1023.58 1023.85 1024.06 1024.21 1024.35 1024.48 1024.62
1016.93 1017.10 1017.28 1017.46 1017.61 1017.72 1017.77 1017.71 1017.54 1017.24 1016.82 1016.30 1015.71 1015.11 1014.55 1014.11 1013.81 1013.70 1013.77 1014.02 1014.42 1014.93 1015.49 1016.06 1016.62 1017.15 1017.65 1018.13 1018.60 1019.10 1019.62 1020.17 1020.74 1021.30 1021.86 1022.36 1022.81 1023.19 1023.51 1023.77 1023.99 1024.20 1024.41 1024.63
1016.70 1016.89 1017.06 1017.20 1017.28 1017.29 1017.21 1017.02 1016.72 1016.31 1015.81 1015.24 1014.65 1014.08 1013.59 1013.22 1013.00 1012.95 1013.07 1013.34 1013.74 1014.21 1014.74 1015.27 1015.80 1016.31 1016.81 1017.31 1017.82 1018.34 1018.90 1019.48 1020.07 1020.66 1021.23 1021.76 1022.24 1022.66 1023.03 1023.36 1023.67 1023.97 1024.26 1024.57
1016.49 1016.66 1016.80 1016.87 1016.87 1016.77 1016.56 1016.24 1015.81 1015.30 1014.72 1014.12 1013.53 1013.00 1012.57 1012.27 1012.12 1012.13 1012.28 1012.57 1012.94 1013.39 1013.88 1014.38 1014.87 1015.37 1015.86 1016.37 1016.90 1017.46 1018.05 1018.65 1019.27 1019.89 1020.48 1021.03 1021.54 1022.01 1022.43 1022.84 1023.22 1023.61 1023.99 1024.37
1016.27 1016.39 1016.46 1016.45 1016.34 1016.13 1015.80 1015.36 1014.83 1014.24 1013.62 1013.01 1012.44 1011.95 1011.58 1011.34 1011.25 1011.30 1011.48 1011.76 1012.12 1012.53 1012.97 1013.42 1013.89 1014.36 1014.85 1015.37 1015.91 1016.49 1017.10 1017.74 1018.38 1019.01 1019.62 1020.20 1020.74 1021.25 1021.72 1022.18 1022.63 1023.08 1023.53 1023.96
1016.02 1016.06 1016.03 1015.91 1015.69 1015.37 1014.94 1014.42 1013.82 1013.19 1012.56 1011.96 1011.43 1010.99 1010.68 1010.50 1010.46 1010.54 1010.72 1010.98 1011.31 1011.68 1012.07 1012.48 1012.90 1013.35 1013.82 1014.34 1014.89 1015.49 1016.12 1016.78 1017.43 1018.09 1018.71 1019.31 1019.87 1020.41 1020.91 1021.40 1021.88 1022.36 1022.83 1023.29
1015.69 1015.61 1015.46 1015.24 1014.92 1014.51 1014.01 1013.44 1012.82 1012.19 1011.58 1011.03 1010.55 1010.18 1009.93 1009.80 1009.78 1009.87 1010.05 1010.28 1010.56 1010.88 1011.21 1011.57 1011.95 1012.36 1012.82 1013.32 1013.88 1014.48 1015.12 1015.79 1016.46 1017.13 1017.77 1018.38 1018.95 1019.48 1019.99 1020.49 1020.97 1021.44 1021.90 1022.35
1015.24 1015.03 1014.77 1014.44 1014.04 1013.57 1013.04 1012.47 1011.87 1011.28 1010.73 1010.23 1009.83 1009.52 1009.32 1009.22 1009.23 1009.31 1009.46 1009.65 1009.88 1010.13 1010.41 1010.71 1011.04 1011.42 1011.84 1012.33 1012.88 1013.48 1014.12 1014.79 1015.47 1016.14 1016.78 1017.39 1017.95 1018.48 1018.98 1019.44 1019.89 1020.33 1020.75 1021.15
1014.65 1014.31 1013.95 1013.54 1013.09 1012.60 1012.08 1011.54 1011.00 1010.48 1010.00 1009.58 1009.25 1009.00 1008.83 1008.76 1008.76 1008.82 1008.94 1009.08 1009.25 1009.44 1009.66 1009.90 1010.18 1010.51 1010.90 1011.37 1011.89 1012.48 1013.11 1013.77 1014.44 1015.10 1015.74 1016.33 1016.89 1017.39 1017.85 1018.28 1018.68 1019.06 1019.42 1019.77
1013.91 1013.47 1013.03 1012.57 1012.11 1011.63 1011.16 1010.69 1010.23 1009.80 1009.40 1009.06 1008.79 1008.58 1008.44 1008.36 1008.34 1008.38 1008.44 1008.53 1008.65 1008.78 1008.94 1009.13 1009.36 1009.65 1010.00 1010.42 1010.91 1011.46 1012.07 1012.71 1013.36 1014.00 1014.62 1015.19 1015.73 1016.20 1016.63 1017.02 1017.37 1017.69 1017.99 1018.29
1013.04 1012.54 1012.05 1011.59 1011.15 1010.73 1010.32 1009.94 1009.58 1009.23 1008.92 1008.64 1008.41 1008.22 1008.08 1007.98 1007.94 1007.92 1007.94 1007.98 1008.05 1008.13 1008.24 1008.39 1008.58 1008.82 1009.13 1009.50 1009.94 1010.45 1011.00 1011.60 1012.21 1012.82 1013.41 1013.96 1014.47 1014.92 1015.32 1015.67 1015.98 1016.26 1016.52 1016.78
1012.09 1011.55 1011.06 1010.63 1010.24 1009.90 1009.59 1009.30 1009.03 1008.77 1008.52 1008.28 1008.06 1007.87 1007.71 1007.59 1007.50 1007.44 1007.42 1007.42 1007.45 1007.50 1007.58 1007.70 1007.85 1008.05 1008.30 1008.62 1009.00 1009.44 1009.93 1010.46 1011.02 1011.58 1012.13 1012.65 1013.13 1013.56 1013.94 1014.27 1014.56 1014.82 1015.07 1015.31
1011.07 1010.54 1010.08 1009.71 1009.40 1009.15 1008.94 1008.75 1008.56 1008.36 1008.16 1007.94 1007.72 1007.51 1007.32 1007.16 1007.03 1006.94 1006.88 1006.86 1006.88 1006.92 1006.99 1007.09 1007.21 1007.37 1007.58 1007.82 1008.13 1008.48 1008.89 1009.34 1009.82 1010.31 1010.81 1011.29 1011.74 1012.16 1012.53 1012.85 1013.14 1013.40 1013.65 1013.90
Thickness
5742 5735 5726 5728 5731 5730 5727 5721 5717 5719 5724 5720 5717 5717 5720 5724 5723 5723 5724 5724 5725 5724 5726 5726 5726 5725 5725 5724 5724 5722 5720 5718 5716 5714 5712 5710 5708 5708 5707 5706 5705 5703 5703 5702
5733 5726 5731 5734 5731 5728 5725 5718 5716 5717 5722 5720 5716 5717 5723 5723 5722 5723 5724 5725 5725 5725 5725 5724 5724 5723 5723 5721 5721 5720 5719 5717 5715 5712 5712 5709 5707 5707 5705 5703 5702 5701 5700 5699
5727 5728 5732 5728 5724 5722 5721 5719 5717 5715 5717 5720 5716 5714 5720 5724 5725 5724 5725 5726 5727 5725 5724 5724 5722 5722 5720 5719 5719 5718 5717 5716 5713 5712 5710 5707 5705 5704 5703 5701 5699 5698 5697 5696
5728 5730 5728 5725 5722 5723 5716 5723 5721 5716 5713 5711 5713 5705 5720 5724 5722 5721 5723 5724 5724 5724 5724 5723 5721 5720 5719 5718 5718 5718 5716 5715 5713 5711 5708 5706 5703 5701 5701 5700 5698 5696 5694 5693
5724 5727 5725 5721 5722 5723 5720 5723 5720 5717 5714 5711 5713 5708 5719 5723 5718 5721 5724 5724 5724 5724 5723 5721 5720 5720 5719 5717 5716 5715 5715 5713 5711 5709 5706 5703 5702 5701 5699 5697 5695 5694 5692 5690
5728 5731 5729 5725 5726 5725 5722 5719 5717 5716 5714 5702 5712 5708 5711 5719 5720 5723 5725 5725 5725 5724 5722 5721 5719 5718 5716 5715 5712 5711 5710 5709 5707 5705 5704 5701 5699 5697 5695 5694 5692 5691 5690 5687
5720 5724 5727 5728 5720 5719 5721 5714 5703 5700 5699 5703 5713 5708 5711 5724 5726 5725 5724 5724 5725 5724 5722 5719 5717 5714 5713 5711 5710 5709 5707 5705 5704 5703 5701 5700 5697 5696 5694 5692 5690 5689 5688 5685
5711 5711 5721 5725 5723 5718 5719 5716 5702 5693 5696 5705 5710 5707 5717 5725 5726 5726 5725 5725 5723 5722 5721 5718 5716 5714 5711 5710 5708 5707 5705 5704 5702 5700 5699 5698 5695 5693 5692 5690 5689 5687 5685 5683
5715 5711 5721 5722 5725 5723 5715 5714 5718 5709 5705 5699 5708 5712 5720 5723 5721 5721 5721 5720 5719 5720 5718 5716 5715 5713 5711 5708 5707 5706 5703 5702 5700 5698 5696 5695 5693 5691 5689 5687 5686 5684 5682 5680
5721 5710 5715 5718 5721 5717 5719 5716 5710 5702 5691 5692 5701 5706 5710 5714 5714 5716 5717 5716 5716 5717 5716 5714 5712 5711 5709 5708 5705 5704 5702 5700 5697 5695 5693 5691 5689 5688 5686 5684 5682 5681 5679 5676
5720 5711 5709 5711 5709 5709 5708 5706 5705 5703 5700 5691 5690 5702 5717 5715 5715 5714 5715 5715 5714 5713 5712 5711 5709 5708 5706 5704 5702 5700 5699 5697 5695 5693 5690 5687 5685 5684 5682 5681 5679 5677 5675 5673
5715 5713 5706 5708 5712 5712 5711 5708 5704 5693 5694 5694 5692 5699 5719 5716 5716 5714 5713 5713 5712 5710 5709 5708 5705 5703 5701 5700 5699 5697 5696 5694 5691 5689 5686 5684 5682 5680 5678 5677 5675 5674 5672 5670
5708 5705 5696 5696 5699 5703 5702 5702 5702 5700 5696 5692 5687 5697 5715 5715 5713 5712 5710 5710 5710 5707 5705 5704 5700 5698 5696 5695 5694 5693 5691 5689 5687 5684 5682 5680 5678 5676 5675 5673 5671 5669 5668 5666
5708 5704 5698 5690 5695 5700 5697 5696 5696 5694 5690 5691 5694 5698 5706 5707 5706 5707 5706 5705 5704 5703 5701 5699 5695 5694 5693 5692 5690 5688 5687 5685 5683 5680 5677 5676 5674 5672 5670 5669 5666 5664 5663 5661
5704 5698 5699 5698 5698 5695 5693 5693 5693 5691 5694 5691 5696 5696 5701 5705 5703 5702 5701 5700 5698 5697 5696 5694 5691 5691 5689 5687 5686 5684 5682 5680 5678 5676 5673 5672 5670 5667 5665 5663 5661 5659 5657 5655
5698 5693 5692 5690 5692 5690 5687 5691 5691 5690 5691 5692 5692 5693 5704 5704 5702 5699 5697 5694 5692 5691 5691 5690 5689 5687 5685 5684 5683 5680 5677 5676 5673 5671 5668 5666 5664 5661 5659 5657 5655 5653 5651 5649
5689 5687 5682 5683 5686 5683 5682 5692 5690 5689 5691 5691 5687 5692 5698 5694 5692 5692 5691 5689 5687 5687 5686 5686 5686 5684 5682 5681 5679 5676 5673 5671 5668 5666 5664 5661 5658 5655 5653 5652 5649 5647 5645 5644
5684 5682 5680 5678 5676 5665 5687 5694 5690 5687 5687 5689 5688 5689 5689 5687 5687 5687 5686 5684 5683 5681 5681 5681 5681 5680 5678 5677 5674 5671 5668 5665 5662 5660 5658 5656 5653 5650 5647 5645 5643 5642 5641 5639
5680 5676 5672 5670 5667 5674 5681 5684 5682 5677 5679 5686 5683 5683 5682 5681 5681 5682 5681 5679 5678 5676 5676 5676 5676 5675 5673 5671 5668 5665 5662 5659 5656 5653 5652 5650 5648 5645 5642 5640 5638 5636 5635 5633
5668 5671 5668 5664 5658 5660 5675 5680 5680 5675 5671 5681 5679 5676 5674 5673 5670 5674 5676 5673 5671 5670 5669 5669 5669 5668 5666 5664 5662 5658 5655 5653 5650 5648 5646 5644 5642 5639 5637 5635 5634 5632 5629 5627
5658 5658 5658 5659 5657 5666 5673 5672 5670 5659 5667 5672 5672 5669 5668 5666 5667 5668 5667 5665 5663 5662 5661 5661 5660 5659 5658 5657 5654 5652 5650 5648 5645 5642 5640 5638 5636 5633 5631 5629 5628 5626 5624 5622
5657 5654 5654 5654 5649 5655 5663 5662 5659 5663 5668 5666 5664 5663 5661 5660 5660 5659 5658 5657 5656 5655 5654 5653 5652 5651 5650 5649 5647 5645 5644 5642 5639 5636 5633 5631 5629 5627 5625 5622 5621 5620 5618 5615
5652 5655 5655 5654 5653 5656 5655 5655 5657 5658 5657 5657 5656 5655 5653 5651 5651 5650 5650 5649 5649 5649 5648 5646 5644 5643 5643 5642 5640 5638 5637 5634 5631 5628 5625 5623 5622 5619 5618 5616 5614 5612 5610 5608
5648 5646 5644 5644 5649 5648 5646 5647 5648 5648 5647 5648 5648 5646 5645 5643 5644 5643 5643 5642 5642 5641 5640 5639 5637 5636 5635 5634 5632 5631 5629 5627 5624 5621 5619 5617 5615 5612 5610 5608 5607 5605 5604 5602
5638 5636 5636 5636 5640 5639 5639 5639 5640 5639 5640 5639 5639 5638 5637 5636 5636 5636 5636 5635 5634 5633 5632 5631 5629 5628 5627 5626 5624 5623 5621 5619 5616 5614 5612 5610 5607 5605 5602 5600 5599 5599 5597 5596
5630 5628 5627 5630 5634 5632 5632 5633 5632 5631 5630 5630 5630 5629 5629 5628 5628 5628 5627 5627 5626 5625 5624 5622 5621 5619 5619 5618 5616 5614 5613 5611 5608 5606 5605 5602 5599 5597 5595 5593 5591 5588 5586 5585